Location: Crescent
(42.8242°N, 73.7329°W)
Time: 19:38:37
(UTC+00:00)

Explorer 7 - Pass Details

Date: 17 February 2026
Orbit: 430 x 541 km, 50.2° (Epoch: 10 March)

Event Time Altitude Azimuth Distance (km) Brightness Sun altitude
Rises 19:56:13 0° 230° (SW) 2,410 11.6 23.4°
Reaches altitude 10° 19:58:19 10° 227° (SW) 1,557 11.3 23.1°
Maximum altitude 20:01:47 64° 145° (SE) 504 7.0 22.6°
Drops below altitude 10° 20:05:24 10° 64° (ENE) 1,621 8.7 22.1°
Sets 20:07:37 0° 61° (ENE) 2,522 9.6 21.8°
